Time,TemperatureF,DewpointF,PressureIn,WindDirection,WindDirectionDegrees,WindSpeedMPH,WindSpeedGustMPH,Humidity,HourlyPrecipIn,Conditions,Clouds,dailyrainin,SoftwareType,DateUTC
2014-04-19 00:26:00,53.5,42.8,30.23,North,351,0.0,0.0,67,0.00,,---,0.00,VWS V15.00,2014-04-19 04:26:00,
2014-04-19 00:27:00,53.5,43.2,30.23,North,351,0.0,0.0,68,0.00,,---,0.00,VWS V15.00,2014-04-19 04:27:00,
2014-04-19 00:32:00,53.4,43.1,30.23,North,351,0.0,0.0,68,0.00,,---,0.00,VWS V15.00,2014-04-19 04:32:00,
2014-04-19 00:37:00,53.4,43.1,30.23,North,351,0.0,0.0,68,0.00,,---,0.00,VWS V15.00,2014-04-19 04:37:00,
2014-04-19 00:42:00,53.3,43.0,30.23,North,351,0.0,0.0,68,0.00,,---,0.00,VWS V15.00,2014-04-19 04:42:00,
2014-04-19 00:47:00,53.2,42.9,30.23,North,351,0.0,0.0,68,0.00,,---,0.00,VWS V15.00,2014-04-19 04:47:00,
2014-04-19 00:52:00,53.1,43.2,30.22,North,351,0.0,0.0,69,0.00,,---,0.00,VWS V15.00,2014-04-19 04:52:00,
2014-04-19 00:57:00,53.1,42.8,30.22,North,351,0.0,0.0,68,0.00,,---,0.00,VWS V15.00,2014-04-19 04:57:00,
2014-04-19 01:02:00,53.2,42.9,30.23,North,351,0.0,0.0,68,0.00,,---,0.00,VWS V15.00,2014-04-19 05:02:00,
2014-04-19 01:07:00,53.2,42.9,30.23,North,351,0.0,0.0,68,0.00,,---,0.00,VWS V15.00,2014-04-19 05:07:00,
2014-04-19 01:12:00,53.2,42.9,30.22,North,351,0.0,0.0,68,0.00,,---,0.00,VWS V15.00,2014-04-19 05:12:00,
2014-04-19 01:17:00,53.3,43.0,30.22,North,351,0.0,0.0,68,0.00,,---,0.00,VWS V15.00,2014-04-19 05:17:00,
2014-04-19 01:22:00,53.0,43.1,30.22,North,351,0.0,1.0,69,0.00,,---,0.00,VWS V15.00,2014-04-19 05:22:00,
2014-04-19 01:27:00,52.9,42.6,30.22,North,351,0.0,0.0,68,0.00,,---,0.00,VWS V15.00,2014-04-19 05:27:00,
2014-04-19 01:32:00,52.8,42.9,30.22,North,351,0.0,0.0,69,0.00,,---,0.00,VWS V15.00,2014-04-19 05:32:00,
2014-04-19 01:36:00,52.9,42.6,30.22,North,351,0.0,1.0,68,0.00,,---,0.00,VWS V15.00,2014-04-19 05:36:00,
2014-04-19 01:41:00,52.9,42.6,30.22,North,351,0.0,0.0,68,0.00,,---,0.00,VWS V15.00,2014-04-19 05:41:00,
2014-04-19 01:46:00,53.0,42.7,30.22,North,351,0.0,0.0,68,0.00,,---,0.00,VWS V15.00,2014-04-19 05:46:00,
2014-04-19 01:51:00,53.0,42.7,30.23,North,351,0.0,0.0,68,0.00,,---,0.00,VWS V15.00,2014-04-19 05:51:00,
2014-04-19 01:56:00,53.0,42.7,30.22,North,351,0.0,0.0,68,0.00,,---,0.00,VWS V15.00,2014-04-19 05:56:00,
2014-04-19 02:01:00,53.2,42.5,30.23,North,1,0.0,0.0,67,0.00,,---,0.00,VWS V15.00,2014-04-19 06:01:00,
2014-04-19 02:06:00,53.5,42.4,30.23,North,4,2.0,2.0,66,0.00,,---,0.00,VWS V15.00,2014-04-19 06:06:00,
2014-04-19 02:11:00,53.8,42.3,30.23,East,83,2.0,3.0,65,0.00,,---,0.00,VWS V15.00,2014-04-19 06:11:00,
2014-04-19 02:16:00,54.0,42.1,30.22,West,271,1.0,1.0,64,0.00,,---,0.00,VWS V15.00,2014-04-19 06:16:00,
2014-04-19 02:21:00,54.0,42.1,30.22,North,2,0.0,1.0,64,0.00,,---,0.00,VWS V15.00,2014-04-19 06:21:00,
2014-04-19 02:26:00,54.1,41.8,30.22,North,2,0.0,0.0,63,0.00,,---,0.00,VWS V15.00,2014-04-19 06:26:00,
2014-04-19 02:31:00,54.0,41.7,30.22,NNE,25,1.0,1.0,63,0.00,,---,0.00,VWS V15.00,2014-04-19 06:31:00,
2014-04-19 02:35:00,53.9,41.6,30.22,North,6,0.0,0.0,63,0.00,,---,0.00,VWS V15.00,2014-04-19 06:35:00,
2014-04-19 02:40:00,53.7,41.4,30.22,NNE,25,0.0,0.0,63,0.00,,---,0.00,VWS V15.00,2014-04-19 06:40:00,
2014-04-19 02:45:00,53.7,41.4,30.22,North,351,0.0,1.0,63,0.00,,---,0.00,VWS V15.00,2014-04-19 06:45:00,
2014-04-19 02:50:00,53.5,41.2,30.22,North,351,0.0,0.0,63,0.00,,---,0.00,VWS V15.00,2014-04-19 06:50:00,
2014-04-19 02:55:00,53.4,41.1,30.22,North,351,0.0,1.0,63,0.00,,---,0.00,VWS V15.00,2014-04-19 06:55:00,
2014-04-19 03:00:00,53.1,40.8,30.22,North,351,0.0,1.0,63,0.00,,---,0.00,VWS V15.00,2014-04-19 07:00:00,
2014-04-19 03:05:00,53.0,41.2,30.22,ENE,58,0.0,1.0,64,0.00,,---,0.00,VWS V15.00,2014-04-19 07:05:00,
2014-04-19 03:10:00,52.8,41.0,30.22,ENE,58,0.0,0.0,64,0.00,,---,0.00,VWS V15.00,2014-04-19 07:10:00,
2014-04-19 03:15:00,52.7,40.9,30.22,ENE,57,0.0,0.0,64,0.00,,---,0.00,VWS V15.00,2014-04-19 07:15:00,
2014-04-19 03:20:00,52.5,40.7,30.22,ENE,57,0.0,0.0,64,0.00,,---,0.00,VWS V15.00,2014-04-19 07:20:00,
2014-04-19 03:25:00,52.3,40.9,30.22,ENE,57,0.0,0.0,65,0.00,,---,0.00,VWS V15.00,2014-04-19 07:25:00,
2014-04-19 03:30:00,52.1,40.7,30.22,ENE,57,0.0,0.0,65,0.00,,---,0.00,VWS V15.00,2014-04-19 07:30:00,
2014-04-19 03:35:00,52.1,40.7,30.22,NNW,346,0.0,0.0,65,0.00,,---,0.00,VWS V15.00,2014-04-19 07:35:00,
2014-04-19 03:40:00,52.0,40.6,30.22,North,2,0.0,2.0,65,0.00,,---,0.00,VWS V15.00,2014-04-19 07:40:00,
2014-04-19 03:45:00,51.9,40.9,30.22,North,2,0.0,0.0,66,0.00,,---,0.00,VWS V15.00,2014-04-19 07:45:00,
2014-04-19 03:50:00,51.6,40.6,30.22,North,2,0.0,0.0,66,0.00,,---,0.00,VWS V15.00,2014-04-19 07:50:00,
2014-04-19 03:55:00,51.5,40.5,30.22,WNW,291,0.0,3.0,66,0.00,,---,0.00,VWS V15.00,2014-04-19 07:55:00,
2014-04-19 04:00:00,51.5,40.5,30.22,North,3,1.0,1.0,66,0.00,,---,0.00,VWS V15.00,2014-04-19 08:00:00,
2014-04-19 04:05:00,51.4,40.4,30.22,North,351,0.0,0.0,66,0.00,,---,0.00,VWS V15.00,2014-04-19 08:05:00,
2014-04-19 04:10:00,51.3,40.3,30.22,NE,40,0.0,3.0,66,0.00,,---,0.00,VWS V15.00,2014-04-19 08:10:00,
2014-04-19 04:15:00,51.3,40.3,30.22,NNE,28,0.0,0.0,66,0.00,,---,0.00,VWS V15.00,2014-04-19 08:15:00,
2014-04-19 04:20:00,51.3,40.7,30.22,NNE,28,0.0,0.0,67,0.00,,---,0.00,VWS V15.00,2014-04-19 08:20:00,
2014-04-19 04:25:00,51.1,40.5,30.21,NNE,28,0.0,0.0,67,0.00,,---,0.00,VWS V15.00,2014-04-19 08:25:00,
2014-04-19 04:30:00,50.9,40.3,30.22,NNE,31,0.0,1.0,67,0.00,,---,0.00,VWS V15.00,2014-04-19 08:30:00,
2014-04-19 04:35:00,50.7,40.5,30.22,NNE,31,0.0,0.0,68,0.00,,---,0.00,VWS V15.00,2014-04-19 08:35:00,
2014-04-19 04:40:00,50.5,40.3,30.22,ENE,62,0.0,2.0,68,0.00,,---,0.00,VWS V15.00,2014-04-19 08:40:00,
2014-04-19 04:45:00,50.5,40.3,30.22,ENE,62,0.0,1.0,68,0.00,,---,0.00,VWS V15.00,2014-04-19 08:45:00,
2014-04-19 04:50:00,50.3,40.2,30.22,ENE,62,0.0,0.0,68,0.00,,---,0.00,VWS V15.00,2014-04-19 08:50:00,
2014-04-19 04:55:00,50.2,40.1,30.22,ENE,62,0.0,0.0,68,0.00,,---,0.00,VWS V15.00,2014-04-19 08:55:00,
2014-04-19 05:00:00,50.0,40.2,30.22,ENE,62,0.0,0.0,69,0.00,,---,0.00,VWS V15.00,2014-04-19 09:00:00,
2014-04-19 05:05:00,49.8,40.0,30.22,ENE,62,0.0,0.0,69,0.00,,---,0.00,VWS V15.00,2014-04-19 09:05:00,
2014-04-19 05:10:00,49.6,40.2,30.22,ENE,62,0.0,0.0,70,0.00,,---,0.00,VWS V15.00,2014-04-19 09:10:00,
2014-04-19 05:15:00,49.5,40.1,30.22,ENE,62,0.0,0.0,70,0.00,,---,0.00,VWS V15.00,2014-04-19 09:15:00,
2014-04-19 05:20:00,49.3,40.3,30.22,ENE,62,0.0,0.0,71,0.00,,---,0.00,VWS V15.00,2014-04-19 09:20:00,
2014-04-19 05:25:00,49.1,40.1,30.22,NE,41,0.0,0.0,71,0.00,,---,0.00,VWS V15.00,2014-04-19 09:25:00,
2014-04-19 05:30:00,48.9,40.3,30.22,NE,39,1.0,1.0,72,0.00,,---,0.00,VWS V15.00,2014-04-19 09:30:00,
2014-04-19 05:35:00,48.8,40.2,30.23,NE,39,0.0,0.0,72,0.00,,---,0.00,VWS V15.00,2014-04-19 09:35:00,
2014-04-19 05:40:00,48.6,40.3,30.23,NE,39,0.0,0.0,73,0.00,,---,0.00,VWS V15.00,2014-04-19 09:40:00,
2014-04-19 05:45:00,48.5,40.2,30.23,ENE,61,0.0,0.0,73,0.00,,---,0.00,VWS V15.00,2014-04-19 09:45:00,
2014-04-19 05:50:00,48.4,40.2,30.23,ENE,61,0.0,0.0,73,0.00,,---,0.00,VWS V15.00,2014-04-19 09:50:00,
2014-04-19 05:55:00,48.3,40.1,30.23,ENE,61,0.0,0.0,73,0.00,,---,0.00,VWS V15.00,2014-04-19 09:55:00,
2014-04-19 06:00:00,48.1,40.2,30.23,ENE,61,0.0,0.0,74,0.00,,---,0.00,VWS V15.00,2014-04-19 10:00:00,
2014-04-19 06:05:00,48.0,40.1,30.24,NE,52,0.0,0.0,74,0.00,,---,0.00,VWS V15.00,2014-04-19 10:05:00,
2014-04-19 06:10:00,48.1,40.2,30.24,NE,37,0.0,0.0,74,0.00,,---,0.00,VWS V15.00,2014-04-19 10:10:00,
2014-04-19 06:15:00,48.1,40.2,30.24,NE,37,0.0,0.0,74,0.00,,---,0.00,VWS V15.00,2014-04-19 10:15:00,
2014-04-19 06:20:00,48.0,40.1,30.24,NE,37,0.0,0.0,74,0.00,,---,0.00,VWS V15.00,2014-04-19 10:20:00,
2014-04-19 06:25:00,47.8,40.3,30.24,NE,37,0.0,0.0,75,0.00,,---,0.00,VWS V15.00,2014-04-19 10:25:00,
2014-04-19 06:30:00,47.6,40.1,30.25,NE,37,0.0,0.0,75,0.00,,---,0.00,VWS V15.00,2014-04-19 10:30:00,
2014-04-19 06:35:00,47.5,40.3,30.25,ENE,62,1.0,1.0,76,0.00,,---,0.00,VWS V15.00,2014-04-19 10:35:00,
2014-04-19 06:40:00,47.7,40.5,30.25,North,5,1.0,3.0,76,0.00,,---,0.00,VWS V15.00,2014-04-19 10:40:00,
2014-04-19 06:45:00,47.9,40.7,30.25,North,5,0.0,1.0,76,0.00,,---,0.00,VWS V15.00,2014-04-19 10:45:00,
2014-04-19 06:50:00,48.0,40.8,30.25,NE,51,0.0,2.0,76,0.00,,---,0.00,VWS V15.00,2014-04-19 10:50:00,
2014-04-19 06:55:00,48.1,40.9,30.25,ENE,70,3.0,3.0,76,0.00,,---,0.00,VWS V15.00,2014-04-19 10:55:00,
2014-04-19 07:00:00,48.2,41.0,30.26,NNW,336,0.0,0.0,76,0.00,,---,0.00,VWS V15.00,2014-04-19 11:00:00,
2014-04-19 07:05:00,48.2,41.0,30.26,North,3,0.0,0.0,76,0.00,,---,0.00,VWS V15.00,2014-04-19 11:05:00,
2014-04-19 07:10:00,48.1,41.2,30.26,North,351,0.0,2.0,77,0.00,,---,0.00,VWS V15.00,2014-04-19 11:10:00,
2014-04-19 07:15:00,48.1,41.2,30.27,NNE,17,2.0,2.0,77,0.00,,---,0.00,VWS V15.00,2014-04-19 11:15:00,
2014-04-19 07:20:00,48.1,41.2,30.27,NE,42,2.0,3.0,77,0.00,,---,0.00,VWS V15.00,2014-04-19 11:20:00,
2014-04-19 07:25:00,48.2,41.3,30.27,NW,325,0.0,3.0,77,0.00,,---,0.00,VWS V15.00,2014-04-19 11:25:00,
2014-04-19 07:30:00,48.3,41.8,30.27,NNW,340,0.0,2.0,78,0.00,,---,0.00,VWS V15.00,2014-04-19 11:30:00,
2014-04-19 07:35:00,48.7,41.8,30.27,NNW,346,0.0,1.0,77,0.00,,---,0.00,VWS V15.00,2014-04-19 11:35:00,
2014-04-19 07:40:00,49.0,42.1,30.28,North,351,1.0,4.0,77,0.00,,---,0.00,VWS V15.00,2014-04-19 11:40:00,